Location: Casilda
(33.0440°S, 61.1680°W)
Time: 06:09:47
(UTC-03:00)

ISS - Visible Passes

Search period start: 16 September 2024 00:00
Search period end: 26 September 2024 00:00
Orbit: 414 x 424 km, 51.6° (Epoch: 16 September)

Date Brightness Start Highest point End Pass type
(mag) Time Alt. Az. Time Alt. Az. Time Alt. Az.
16 Sep -1.6 05:29:23 15° N 05:31:16 24° NE 05:34:05 10° ESE visible
17 Sep -0.6 04:44:32 13° ENE 04:44:32 13° ENE 04:45:38 10° E visible
17 Sep -3.3 06:17:33 13° WNW 06:20:29 46° SW 06:23:49 10° SE visible
18 Sep -3.8 05:32:45 63° NW 05:33:15 88° SW 05:36:43 10° SE visible
19 Sep -1.4 04:48:00 24° ESE 04:48:00 24° ESE 04:49:39 10° ESE visible
19 Sep -1.8 06:21:01 10° WSW 06:23:20 17° SSW 06:25:44 10° S visible
20 Sep -2.4 05:36:22 26° SW 05:36:26 26° SW 05:39:26 10° SSE visible
21 Sep -1.3 04:51:50 20° SSE 04:51:50 20° SSE 04:53:09 10° SSE visible
22 Sep -1.2 05:40:28 11° SW 05:40:50 11° SSW 05:41:59 10° S visible
23 Sep -0.9 04:56:12 12° S 04:56:12 12° S 04:56:48 10° S visible
